Find Local Weather

World > North America > United States > New York

Hancock, New York Regional Weather

Lat: 41.95N, Lon: 75.28W
Wx Zone: NYZ057
Feedback
Expires:201809230600;;068515
ASUS41 KBGM 230510
RWRBGM

REGIONAL WEATHER ROUNDUP
NATIONAL WEATHER SERVICE BINGHAMTON NY
100 AM EDT SUN SEP 23 2018

Note: "fair" indicates few or no clouds below 12,000 feet with no
significant weather and/or obstructions to visibility.

* = Station(s) that does not report precipitation, such as rain, 
snow, etc, also no thunder or fog.


NYZ009-015>018-022>025-036-037-044>046-055>057-062-230600
...Central New York...
  
CITY           SKY/WX    TMP DP  RH WIND       PRES   REMARKS
Binghamton     FAIR      48  44  86 NE6       30.24S                  
Cortland       FAIR      45  45 100 CALM      30.26R                  
Dansville      FAIR      50  47  89 CALM      30.26S                  
Elmira         FAIR      48  46  93 CALM      30.24F                  
Seneca Falls   CLEAR     46  46 100 CALM      30.26S                  
Ithaca         FAIR      47  46  97 E5        30.26S                  
Hamilton       CLEAR     45  43  93 CALM      30.26S                  
Hornell        MOCLDY    46  46 100 CALM      30.29S                  
Monticello     FAIR      48  47  96 CALM      30.24S                  
Oneonta        CLEAR     45  43  93 CALM      30.25R                  
Penn Yan       FAIR      48  46  93 CALM      30.26R                  
Rome           FAIR      45  45 100 CALM      30.28S                  
Sidney         CLOUDY    48  48 100 CALM      30.26R                  
Syracuse       CLOUDY    46  46 100 E3        30.26F                  
$$
 

SKY/WX - Weather  TMP - Temperature  DP - Dew Point  RH - Relative Humidity
WIND - Wind Direction/Speed PRES - Barometric Pressure